Regional Weather Roundup
Issued by NWS Newport/Morehead, NC

Current Version | Previous Version | Graphics & Text | Print | Product List | Glossary Off
Versions: 1 2 3 4 5 6 7 8 9 10 11 12 13 14 15 16 17 18 19 20 21 22 23 24 25 26 27 28 29 30 31 32 33 34 35 36 37 38 39 40 41 42 43 44 45 46 47 48 49 50

000
ASUS42 KMHX 240722
RWRMHX
WEATHER ROUNDUP FOR EASTERN NORTH CAROLINA
NATIONAL WEATHER SERVICE NEWPORT/MOREHEAD CITY NC
200 AM EST MON NOV 24 2014

NOTE: "FAIR" INDICATES FEW OR NO CLOUDS BELOW 12,000 FEET
WITH NO SIGNIFICANT WEATHER AND/OR OBSTRUCTIONS TO VISIBILITY

NCZ015>017-031-032-045>047-102-103-240800-
NORTH COAST

CITY           SKY/WX    TMP DP  RH WIND       PRES   REMARKS
EDENTON        LGT RAIN  65  65  99 S21       29.83R
ELIZABETH CITY RAIN      68  64  87 SE15G26   29.80F FOG
KITTY HAWK     RAIN      64  63  96 S9G22     29.85F
MANTEO         RAIN      59  59  99 S16G26    29.85F

$$

NCZ045>047-081-094-103-104-240800-
CENTRAL COAST

CITY           SKY/WX    TMP DP  RH WIND       PRES   REMARKS
FRISCO         RAIN      67  65  93 S29G45    29.88F FOG
SWANQUARTER      N/A     64 N/A N/A S20G30    29.79F

$$

NCZ095-097-098-100-101-240800-
SOUTHERN COAST

CITY           SKY/WX    TMP DP  RH WIND       PRES   REMARKS
BEAUFORT       LGT RAIN  67  67 100 SE17G31   29.84F FOG
CEDAR ISLAND     N/A     66 N/A N/A SE18G32   29.85F
JACKSONVILLE   CLOUDY    69  66  90 S12       29.83R
PINEY ISLAND   LGT RAIN  71  68  90 SE23G33   29.82F FOG
WILMINGTON     CLOUDY    67  66  97 S8        29.84R


$$

NCZ011>013-027>030-043-044-078>080-089-090>093-098-240800-
COASTAL PLAIN

CITY           SKY/WX    TMP DP  RH WIND       PRES   REMARKS
AHOSKIE        CLOUDY    66  64  94 S12G20    29.80R
CLINTON        MOCLDY    66  66 100 SE3       29.81R
ELIZABETHTOWN  MOCLDY    65  65 100 SE5       29.82R
GOLDSBORO      CLOUDY    67  67 100 SE8       29.78S
GREENVILLE     CLOUDY    68  66  94 S12G22    29.83F
HAVELOCK       LGT RAIN  70  67  90 SE22G35   29.84F
KENANSVILLE    CLOUDY    66  65  96 SE3       29.82S
KINSTON        CLOUDY    68  66  94 S12       29.82F
NEW BERN       CLOUDY    71  67  87 S21G30    29.84S
RICHLANDS      CLOUDY    66  63  88 S6        29.84R
ROCKY MOUNT    CLOUDY    67  66  97 S12       29.78S
WASHINGTON     CLOUDY    67  65  93 S13G20    29.82S
WHITEVILLE     MOCLDY    65  64  94 SE3       29.81R

$$

AMZ130-135-150-152-154-156-158-170-250-252-270-ANZ085-086-088-633-658-670-240800-
MARINE OBSERVATIONS

STATION/POSITION TIME  TEMP    WIND        PRES    WAVE   SWELL
                       AIR SEA DIR/SP/G            HT/PER HT/PER
                 (UTC) (F)     (DEG/KT/KT) (MB)    (FT/S) (FT/S)
CHESAPEAKE LIGHT 0700   62     170/ 33/ 35 1009.2
64 E VA BEACH    0700   67 62  160/ 21/ 25 1011.3   11/ 8   7/ 8
DUCK             0700   66 55  170/ 25/ 33 1009.7
2 E DUCK         0700      58                N/A     6/ 8
10 NE DUCK       0700      58                N/A     8/ 8   2/11
OREGON INLET     0700   62 53  150/ 15/ 21 1010.8
13E OREGON INLT  0700      63                N/A    13/ 8   2/11
HATTERAS CG      0700   68 59  160/ 26/ 35 1011.9
DIAMOND BUOY     0700   71     160/ 31/ 37 1010.8   13/ 8   2/16
17 S OCRACOKE    NOT AVBL
CAPE LOOKOUT     0700   67     140/ 27/ 30 1009.7
BEAUFORT LAB     0700   65 56  150/ 16/ 22 1009.2
30 SE NEW RIVER  0700   71 69  190/ 19/ 23 1009.9   12/10   7/10
5 SE WRIGHTSVLE  0700   60 60  200/ 12/ 16 1009.4
225 S CAPE HAT   0553   74 73  180/ 25/ 31 1015.3   11/ 8
41 SE CHARLESTON 0700   76 74  210/ 21/ 25 1009.9   11/10   8/10

$$



USA.gov is the U.S. government's official web portal to all federal, state and local government web resources and services.